SCP
0 0 0 0 0 0 0 0 0 0 0 0 0 0 0 0 0 0 0 0 0 0 0 0 1 1 0 0 0 1 0 1 1 1 1 2 2 1 1 1 1 1 0 0
0 0 0 0 0 0 0 0 0 0 0 0 0 0 0 0 0 0 0 0 0 0 0 0 0 0 0 0 0 0 0 0 1 1 2 2 1 1 1 1 1 1 0 1
0 0 0 0 0 0 0 0 0 0 0 0 0 0 0 0 0 0 0 0 0 0 0 0 0 0 0 0 0 0 0 1 1 2 1 1 0 0 1 1 1 1 1 1
0 0 0 0 0 0 0 0 0 0 0 0 0 0 0 0 0 0 0 0 0 0 0 0 0 0 0 0 0 0 0 0 0 0 0 0 0 0 0 0 0 0 0 0
0 0 0 0 0 0 0 0 0 0 0 0 0 0 0 0 0 0 0 0 0 0 0 0 0 0 0 0 0 0 0 0 0 0 0 0 0 0 0 0 0 0 0 0
0 0 0 0 0 0 0 0 0 0 0 0 0 0 0 0 0 0 0 0 0 0 0 0 0 0 0 0 0 0 0 0 0 0 0 0 0 0 0 0 0 0 0 0
0 0 0 0 0 0 0 0 0 0 0 0 0 0 0 0 0 0 0 0 0 0 0 0 0 0 0 0 0 0 0 0 0 0 0 0 0 0 0 0 0 0 0 0
0 0 0 0 0 0 0 0 0 0 0 0 0 0 0 0 0 0 0 0 0 0 0 0 0 0 0 0 0 0 0 0 0 0 0 0 0 0 0 0 0 0 0 0
0 0 0 0 0 0 0 0 0 0 0 0 0 0 0 0 0 0 0 0 0 0 0 0 0 0 0 0 0 0 0 0 0 0 0 0 0 0 0 0 0 0 0 0
0 0 0 0 0 0 0 0 0 0 0 0 0 0 0 0 0 0 0 0 0 0 0 0 0 0 0 0 0 0 0 0 0 0 0 0 0 0 0 0 0 0 0 0
0 0 0 0 0 0 0 0 0 0 0 0 0 0 0 0 0 0 0 0 0 0 0 0 0 0 0 0 0 0 0 0 0 0 0 0 0 0 0 0 0 0 0 0
0 0 0 0 0 0 0 0 0 0 0 0 0 0 0 0 0 0 0 0 0 0 0 0 0 0 0 0 0 0 0 0 0 0 0 0 0 0 0 0 0 0 0 0
0 0 0 0 0 0 0 0 0 0 0 0 0 0 0 0 0 0 0 0 0 0 0 0 0 0 0 0 0 0 0 0 0 0 0 0 0 0 0 0 0 0 0 0
0 0 0 0 0 0 0 0 0 0 0 0 0 0 0 0 0 0 0 0 0 0 0 0 0 0 0 0 0 0 0 0 0 0 0 0 0 0 0 0 0 0 0 0
0 0 0 0 0 0 0 0 0 0 0 0 0 0 0 0 0 0 0 0 0 0 0 0 0 0 0 0 0 0 0 0 0 0 0 0 0 0 0 0 0 0 0 0
0 0 0 0 0 0 0 0 0 0 0 0 0 0 0 0 0 0 0 0 0 0 0 0 0 0 0 0 0 0 0 0 0 0 0 0 0 0 0 0 0 0 -0 -0
0 0 0 0 0 0 0 0 0 0 0 0 0 0 0 0 0 0 0 0 0 0 0 0 0 0 0 0 0 0 0 0 0 0 0 0 0 0 0 0 0 -0 -0 -0
0 0 0 0 0 0 0 0 0 0 0 0 0 0 0 0 0 0 0 0 0 0 0 0 0 0 0 0 0 0 0 0 0 0 0 0 0 -0 0 0 0 0 0 0
0 0 0 0 0 0 0 0 0 0 0 0 0 0 0 0 0 0 0 0 0 0 0 0 0 0 0 0 0 0 0 0 -0 0 0 -0 0 -0 -0 -0 -0 0 0 0
0 0 0 0 0 0 0 0 0 0 0 0 0 0 0 0 0 0 0 0 0 0 0 0 0 0 0 0 0 0 0 0 0 -0 0 0 -0 -0 -0 -0 -0 -0 -0 -0
0 0 0 0 0 0 0 0 0 0 0 0 0 0 0 0 0 0 0 0 0 0 0 0 0 -0 -0 -0 0 0 0 0 0 0 0 0 -0 -0 -0 0 0 -0 0 -0
0 0 0 0 0 0 0 0 0 0 0 0 0 0 0 0 0 0 0 0 0 0 0 -0 -0 0 0 -0 0 0 0 0 0 0 -0 0 0 0 0 -0 -0 -0 -0 -0
0 0 0 0 0 0 0 0 0 0 0 0 0 0 0 0 0 0 0 -0 0 0 -0 -0 0 0 0 0 0 0 0 0 -0 0 0 0 0 0 -0 -0 -0 0 0 0
0 0 0 0 0 0 0 0 0 0 0 0 0 0 0 0 0 -0 0 0 0 0 0 0 0 0 0 0 -0 0 -0 -0 -0 -0 0 0 0 0 0 0 0 0 0 0
0 0 0 0 0 0 0 -0 0 0 0 -0 -0 0 0 0 0 0 0 0 0 0 0 0 0 0 -0 0 0 -0 -0 -0 0 0 0 0 0 0 0 0 0 0 0 -0
0 0 0 0 0 0 -0 -0 0 0 0 0 0 0 0 0 0 0 0 0 0 0 0 0 0 0 0 -0 0 0 0 0 0 0 0 0 -0 -0 -0 0 0 -0 0 0
0 0 0 0 0 -0 0 0 0 0 0 0 0 0 0 0 0 0 0 0 0 0 0 0 0 0 0 0 0 0 0 0 0 0 0 0 0 0 0 -0 -0 -0 -0 -0
Wind_Speed_500mb
6 6 8 18 23 18 9 19 8 13 10 8 9 12 17 19 21 24 23 21 18 10 4 16 20 17 16 9 5 1 11 16 19 28 31 26 28 29 29 30 32 33 39 43
6 8 15 12 13 13 11 13 10 10 9 3 2 2 7 15 18 22 22 23 22 21 19 15 13 10 13 12 8 8 11 23 18 18 25 31 29 24 25 27 25 25 24 22
11 5 11 6 14 13 8 8 11 7 4 7 7 8 6 11 14 15 17 19 22 23 20 15 8 9 14 21 18 19 27 24 26 26 29 30 25 28 30 25 20 21 20 21
6 6 8 6 4 7 9 11 11 3 7 9 12 11 8 9 12 15 16 16 14 11 7 6 10 16 20 24 23 22 21 26 30 31 31 30 27 23 20 27 29 38 31 31
7 6 4 2 8 10 9 6 12 8 14 17 15 10 7 10 13 15 16 14 12 6 3 6 13 14 14 15 19 22 25 26 28 28 26 25 27 34 38 36 34 35 37 41
3 5 8 2 5 3 7 9 16 19 22 25 18 8 6 10 9 11 11 9 8 9 12 11 11 11 11 14 18 20 23 26 27 27 27 31 38 40 34 38 38 43 39 42
5 3 6 2 10 3 13 7 5 18 18 25 11 1 2 5 10 10 9 11 14 14 13 14 14 14 16 16 19 21 20 19 22 21 21 26 26 24 30 37 41 43 48 51
5 3 10 8 3 9 5 10 3 9 11 19 15 13 12 6 11 14 16 18 19 15 15 15 15 15 15 16 17 19 22 25 24 25 26 27 30 37 41 47 53 52 53 56
6 1 2 6 7 10 1 0 4 6 9 9 9 10 10 13 19 21 23 24 22 21 21 21 23 20 18 20 18 15 21 21 23 25 30 37 40 40 40 47 50 47 46 48
4 6 5 5 3 2 3 6 7 8 6 7 11 15 15 21 24 24 25 26 25 22 23 25 24 23 29 22 16 17 20 22 28 31 33 40 44 46 43 42 49 49 45 44
5 9 10 19 19 15 14 13 9 4 1 4 11 15 19 21 21 20 21 21 22 24 24 25 26 27 26 23 26 30 32 31 31 32 38 47 49 47 51 52 53 53 50 48
9 13 14 15 18 30 25 17 12 10 9 10 9 11 16 19 19 19 19 22 25 27 27 24 27 32 37 38 38 40 43 42 38 42 43 47 53 54 60 55 59 61 59 53
13 12 18 24 24 31 24 21 21 18 11 12 17 21 23 25 27 26 28 31 33 35 38 40 39 39 40 45 42 46 50 48 46 50 48 50 55 57 55 57 64 68 52 51
27 24 21 28 22 27 24 27 21 16 16 20 23 26 30 33 35 35 35 35 36 37 40 37 35 39 42 43 43 47 43 46 48 46 50 50 55 60 61 60 59 55 50 46
32 32 28 22 21 24 27 24 23 20 18 17 19 23 24 24 25 28 29 31 33 34 34 38 38 40 43 44 42 40 43 43 50 47 49 52 47 41 43 46 49 42 46 49
29 19 26 32 22 24 29 28 21 16 17 17 19 22 25 29 32 34 34 37 38 37 38 39 38 36 36 38 40 45 47 58 60 51 38 37 38 43 43 44 48 49 50 44
21 13 20 27 24 24 18 18 17 18 20 22 24 28 30 33 36 36 36 35 33 33 34 34 35 37 41 46 55 59 58 47 44 37 30 35 47 48 50 55 49 39 39 27
8 4 4 7 19 17 14 13 14 17 21 27 31 37 41 42 40 42 45 43 41 43 44 38 36 43 51 53 46 43 38 32 31 24 23 34 43 39 35 36 35 27 19 6
14 16 17 16 12 5 7 15 23 31 38 42 46 47 47 48 46 44 37 33 31 35 35 35 38 31 32 27 33 29 24 19 15 11 23 28 26 32 32 28 27 22 17 17
20 16 12 11 13 19 26 31 37 40 39 37 36 35 34 34 34 31 31 37 31 19 20 20 23 28 28 26 22 14 18 11 8 15 33 31 40 45 45 47 51 52 47 54
14 17 21 25 27 28 32 32 29 30 33 33 34 35 35 32 30 29 27 29 17 20 19 17 21 19 20 13 11 12 9 7 10 30 21 25 27 28 40 50 51 47 41 31
21 24 26 24 26 30 26 31 31 27 34 35 33 30 29 28 23 23 22 23 10 12 11 18 15 12 6 4 9 13 8 10 19 23 21 17 15 17 20 22 21 17 15 16
21 21 21 22 24 29 31 26 23 34 31 29 25 26 24 20 15 19 14 6 13 13 5 3 6 8 8 4 3 3 10 20 32 18 17 12 13 16 17 18 20 25 24 20
19 24 24 23 23 22 23 27 24 20 20 21 22 21 11 9 5 3 6 9 11 14 7 19 11 10 11 15 12 14 16 32 20 13 11 11 15 17 18 17 18 18 19 19
23 21 18 17 20 21 21 15 18 13 14 16 20 20 21 28 28 29 24 23 21 26 26 19 18 21 25 30 36 39 37 25 14 14 19 20 19 18 16 14 13 13 12 11
18 14 15 13 15 15 14 11 13 17 14 10 12 14 16 17 16 19 23 30 36 33 24 27 35 33 42 47 39 33 30 27 22 20 18 17 15 13 11 9 8 7 7 7
8 9 7 9 11 10 9 11 14 12 17 21 27 29 30 30 30 32 35 37 35 29 28 37 43 43 40 34 30 29 26 23 20 18 17 16 14 11 10 9 8 7 6 5
Wind_Direction_500mb
46 135 148 147 151 160 141 145 179 154 213 304 330 329 337 343 5 21 30 42 48 48 256 237 234 244 236 236 77 38 315 344 319 301 303 304 305 296 291 291 286 281 281 283
86 71 140 144 154 149 129 158 136 164 244 105 142 140 33 26 30 39 45 55 65 79 97 115 114 92 65 57 41 3 2 346 336 331 315 306 296 287 292 297 295 288 290 293
145 75 126 158 203 189 147 163 155 191 102 179 165 131 88 61 66 68 77 85 89 92 95 91 59 19 7 357 360 347 348 335 323 315 313 306 293 292 294 292 298 302 301 301
115 128 204 72 282 225 174 171 192 152 178 157 145 125 108 113 125 116 111 109 110 106 78 34 360 337 331 323 319 330 332 326 320 314 300 303 296 302 313 325 312 317 304 310
151 185 344 148 183 159 190 190 200 175 148 148 149 151 165 136 137 140 141 144 152 168 225 282 298 302 307 315 330 331 334 326 318 313 311 306 301 301 316 305 303 296 299 302
2 196 197 45 33 132 140 265 194 186 177 171 167 221 99 189 178 171 172 182 206 239 271 283 296 309 317 322 321 318 316 313 309 305 305 309 310 316 318 315 315 307 304 309
131 197 285 354 323 326 213 298 310 205 184 171 186 186 18 301 226 223 233 250 258 265 281 297 305 305 304 306 312 317 324 332 333 332 335 336 337 339 336 334 329 318 311 310
113 165 263 19 246 222 346 318 289 177 186 202 227 280 304 267 237 250 255 259 262 275 293 297 290 294 302 316 324 334 337 337 335 335 334 332 328 326 328 329 322 317 313 312
220 334 348 295 262 305 228 154 145 167 198 218 242 266 270 263 257 256 260 263 274 287 291 289 289 294 307 317 325 333 331 331 330 326 320 316 315 315 315 323 322 315 310 310
193 185 244 269 276 213 207 200 206 215 232 254 265 267 268 268 264 271 279 284 283 282 280 283 291 296 299 296 294 310 330 322 316 316 319 316 307 308 307 312 318 315 310 312
229 245 256 245 231 213 207 198 185 184 255 291 270 278 286 291 295 297 292 282 283 282 281 288 287 294 293 285 284 287 294 297 307 307 307 311 305 301 302 305 318 312 310 308
244 219 241 252 273 231 212 206 222 238 255 260 284 298 303 301 295 284 277 281 277 277 277 296 292 289 291 281 280 279 281 287 290 295 297 301 301 298 302 302 302 311 308 301
279 300 244 279 262 218 219 237 242 240 246 287 292 295 290 286 283 280 278 281 279 276 277 279 279 279 292 288 276 274 279 291 289 290 294 299 302 303 305 307 310 314 306 302
284 270 269 254 221 220 248 256 241 227 247 264 274 282 288 288 286 288 292 292 291 288 285 281 280 291 293 281 273 282 282 285 289 297 303 306 305 303 302 304 309 313 313 311
284 270 250 243 226 250 248 223 213 225 243 263 284 289 292 297 296 298 297 294 296 294 289 292 292 291 283 281 279 281 289 296 302 307 310 311 316 315 311 306 307 307 309 310
316 291 239 240 254 253 216 209 213 226 248 256 266 266 267 271 275 279 283 287 290 288 288 290 289 282 279 281 287 295 299 303 307 310 315 317 316 318 317 314 313 310 312 314
280 269 238 233 230 200 199 209 226 245 252 257 260 262 269 276 280 286 289 290 290 290 291 290 286 285 289 295 302 304 304 306 304 312 312 314 319 321 321 319 319 316 316 304
226 300 221 205 183 189 206 231 246 258 267 270 274 277 279 283 286 288 289 287 287 290 285 285 284 292 300 305 305 307 309 312 314 317 320 325 329 335 335 331 327 317 324 8
108 110 109 121 136 174 258 278 282 283 283 284 287 288 288 289 289 286 282 274 284 300 291 281 290 302 311 315 317 316 317 329 341 350 358 1 11 10 12 28 35 51 65 93
77 64 44 12 333 312 304 301 299 298 301 302 302 301 298 298 293 286 275 268 270 281 292 289 285 301 311 318 322 337 348 354 25 49 76 65 55 57 63 66 75 83 92 101
11 352 338 329 324 323 320 315 315 313 312 310 307 305 301 298 295 289 283 273 270 265 270 284 307 317 323 341 14 359 353 35 91 112 86 77 69 69 66 66 66 74 76 69
345 341 334 332 331 328 327 324 319 321 326 316 310 309 305 298 301 292 277 261 234 228 268 307 316 334 66 71 38 30 45 97 117 109 93 77 61 49 46 45 48 44 32 23
343 344 343 334 325 321 323 327 329 330 318 329 325 312 311 309 297 309 303 256 202 214 325 343 88 78 77 47 56 24 87 110 122 107 81 54 40 37 40 41 44 51 58 71
333 333 331 325 330 336 339 333 337 339 342 353 356 355 354 348 341 295 82 111 124 111 110 112 97 61 63 67 85 129 85 124 121 86 63 50 55 55 56 59 57 54 56 59
330 332 334 336 339 339 337 348 353 19 25 26 40 52 67 78 89 96 102 110 112 118 114 93 66 76 93 96 102 112 120 118 94 78 75 64 54 48 45 43 46 53 51 42
324 339 335 341 345 353 3 9 48 33 23 46 61 68 74 97 93 93 107 111 118 118 101 89 88 86 101 103 99 95 93 92 84 66 46 33 27 22 19 15 13 17 31 43
309 317 334 6 6 42 66 73 55 46 70 80 88 91 89 94 100 107 115 120 120 109 103 106 103 101 98 95 95 97 88 68 51 31 20 16 12 9 6 0 350 340 328 308
Wind_Speed_850mb
6 6 8 18 23 18 9 19 8 13 10 8 9 12 17 19 21 24 23 21 18 10 4 16 20 17 16 9 5 1 11 16 19 28 31 26 28 29 29 30 32 33 39 43
6 8 15 12 13 13 11 13 10 10 9 3 2 2 7 15 18 22 22 23 22 21 19 15 13 10 13 12 8 8 11 23 18 18 25 31 29 24 25 27 25 25 24 22
11 5 11 6 14 13 8 8 11 7 4 7 7 8 6 11 14 15 17 19 22 23 20 15 8 9 14 21 18 19 27 24 26 26 29 30 25 28 30 25 20 21 20 21
6 6 8 6 4 7 9 11 11 3 7 9 12 11 8 9 12 15 16 16 14 11 7 6 10 16 20 24 23 22 21 26 30 31 31 30 27 23 20 27 29 38 31 31
7 6 4 2 8 10 9 6 12 8 14 17 15 10 7 10 13 15 16 14 12 6 3 6 13 14 14 15 19 22 25 26 28 28 26 25 27 34 38 36 34 35 37 41
3 5 8 2 5 3 7 9 16 19 22 25 18 8 6 10 9 11 11 9 8 9 12 11 11 11 11 14 18 20 23 26 27 27 27 31 38 40 34 38 38 43 39 42
5 3 6 2 10 3 13 7 5 18 18 25 11 1 2 5 10 10 9 11 14 14 13 14 14 14 16 16 19 21 20 19 22 21 21 26 26 24 30 37 41 43 48 51
5 3 10 8 3 9 5 10 3 9 11 19 15 13 12 6 11 14 16 18 19 15 15 15 15 15 15 16 17 19 22 25 24 25 26 27 30 37 41 47 53 52 53 56
6 1 2 6 7 10 1 0 4 6 9 9 9 10 10 13 19 21 23 24 22 21 21 21 23 20 18 20 18 15 21 21 23 25 30 37 40 40 40 47 50 47 46 48
4 6 5 5 3 2 3 6 7 8 6 7 11 15 15 21 24 24 25 26 25 22 23 25 24 23 29 22 16 17 20 22 28 31 33 40 44 46 43 42 49 49 45 44
5 9 10 19 19 15 14 13 9 4 1 4 11 15 19 21 21 20 21 21 22 24 24 25 26 27 26 23 26 30 32 31 31 32 38 47 49 47 51 52 53 53 50 48
9 13 14 15 18 30 25 17 12 10 9 10 9 11 16 19 19 19 19 22 25 27 27 24 27 32 37 38 38 40 43 42 38 42 43 47 53 54 60 55 59 61 59 53
13 12 18 24 24 31 24 21 21 18 11 12 17 21 23 25 27 26 28 31 33 35 38 40 39 39 40 45 42 46 50 48 46 50 48 50 55 57 55 57 64 68 52 51
27 24 21 28 22 27 24 27 21 16 16 20 23 26 30 33 35 35 35 35 36 37 40 37 35 39 42 43 43 47 43 46 48 46 50 50 55 60 61 60 59 55 50 46
32 32 28 22 21 24 27 24 23 20 18 17 19 23 24 24 25 28 29 31 33 34 34 38 38 40 43 44 42 40 43 43 50 47 49 52 47 41 43 46 49 42 46 49
29 19 26 32 22 24 29 28 21 16 17 17 19 22 25 29 32 34 34 37 38 37 38 39 38 36 36 38 40 45 47 58 60 51 38 37 38 43 43 44 48 49 50 44
21 13 20 27 24 24 18 18 17 18 20 22 24 28 30 33 36 36 36 35 33 33 34 34 35 37 41 46 55 59 58 47 44 37 30 35 47 48 50 55 49 39 39 27
8 4 4 7 19 17 14 13 14 17 21 27 31 37 41 42 40 42 45 43 41 43 44 38 36 43 51 53 46 43 38 32 31 24 23 34 43 39 35 36 35 27 19 6
14 16 17 16 12 5 7 15 23 31 38 42 46 47 47 48 46 44 37 33 31 35 35 35 38 31 32 27 33 29 24 19 15 11 23 28 26 32 32 28 27 22 17 17
20 16 12 11 13 19 26 31 37 40 39 37 36 35 34 34 34 31 31 37 31 19 20 20 23 28 28 26 22 14 18 11 8 15 33 31 40 45 45 47 51 52 47 54
14 17 21 25 27 28 32 32 29 30 33 33 34 35 35 32 30 29 27 29 17 20 19 17 21 19 20 13 11 12 9 7 10 30 21 25 27 28 40 50 51 47 41 31
21 24 26 24 26 30 26 31 31 27 34 35 33 30 29 28 23 23 22 23 10 12 11 18 15 12 6 4 9 13 8 10 19 23 21 17 15 17 20 22 21 17 15 16
21 21 21 22 24 29 31 26 23 34 31 29 25 26 24 20 15 19 14 6 13 13 5 3 6 8 8 4 3 3 10 20 32 18 17 12 13 16 17 18 20 25 24 20
19 24 24 23 23 22 23 27 24 20 20 21 22 21 11 9 5 3 6 9 11 14 7 19 11 10 11 15 12 14 16 32 20 13 11 11 15 17 18 17 18 18 19 19
23 21 18 17 20 21 21 15 18 13 14 16 20 20 21 28 28 29 24 23 21 26 26 19 18 21 25 30 36 39 37 25 14 14 19 20 19 18 16 14 13 13 12 11
18 14 15 13 15 15 14 11 13 17 14 10 12 14 16 17 16 19 23 30 36 33 24 27 35 33 42 47 39 33 30 27 22 20 18 17 15 13 11 9 8 7 7 7
8 9 7 9 11 10 9 11 14 12 17 21 27 29 30 30 30 32 35 37 35 29 28 37 43 43 40 34 30 29 26 23 20 18 17 16 14 11 10 9 8 7 6 5
Wind_Direction_850mb
46 135 148 147 151 160 141 145 179 154 213 304 330 329 337 343 5 21 30 42 48 48 256 237 234 244 236 236 77 38 315 344 319 301 303 304 305 296 291 291 286 281 281 283
86 71 140 144 154 149 129 158 136 164 244 105 142 140 33 26 30 39 45 55 65 79 97 115 114 92 65 57 41 3 2 346 336 331 315 306 296 287 292 297 295 288 290 293
145 75 126 158 203 189 147 163 155 191 102 179 165 131 88 61 66 68 77 85 89 92 95 91 59 19 7 357 360 347 348 335 323 315 313 306 293 292 294 292 298 302 301 301
115 128 204 72 282 225 174 171 192 152 178 157 145 125 108 113 125 116 111 109 110 106 78 34 360 337 331 323 319 330 332 326 320 314 300 303 296 302 313 325 312 317 304 310
151 185 344 148 183 159 190 190 200 175 148 148 149 151 165 136 137 140 141 144 152 168 225 282 298 302 307 315 330 331 334 326 318 313 311 306 301 301 316 305 303 296 299 302
2 196 197 45 33 132 140 265 194 186 177 171 167 221 99 189 178 171 172 182 206 239 271 283 296 309 317 322 321 318 316 313 309 305 305 309 310 316 318 315 315 307 304 309
131 197 285 354 323 326 213 298 310 205 184 171 186 186 18 301 226 223 233 250 258 265 281 297 305 305 304 306 312 317 324 332 333 332 335 336 337 339 336 334 329 318 311 310
113 165 263 19 246 222 346 318 289 177 186 202 227 280 304 267 237 250 255 259 262 275 293 297 290 294 302 316 324 334 337 337 335 335 334 332 328 326 328 329 322 317 313 312
220 334 348 295 262 305 228 154 145 167 198 218 242 266 270 263 257 256 260 263 274 287 291 289 289 294 307 317 325 333 331 331 330 326 320 316 315 315 315 323 322 315 310 310
193 185 244 269 276 213 207 200 206 215 232 254 265 267 268 268 264 271 279 284 283 282 280 283 291 296 299 296 294 310 330 322 316 316 319 316 307 308 307 312 318 315 310 312
229 245 256 245 231 213 207 198 185 184 255 291 270 278 286 291 295 297 292 282 283 282 281 288 287 294 293 285 284 287 294 297 307 307 307 311 305 301 302 305 318 312 310 308
244 219 241 252 273 231 212 206 222 238 255 260 284 298 303 301 295 284 277 281 277 277 277 296 292 289 291 281 280 279 281 287 290 295 297 301 301 298 302 302 302 311 308 301
279 300 244 279 262 218 219 237 242 240 246 287 292 295 290 286 283 280 278 281 279 276 277 279 279 279 292 288 276 274 279 291 289 290 294 299 302 303 305 307 310 314 306 302
284 270 269 254 221 220 248 256 241 227 247 264 274 282 288 288 286 288 292 292 291 288 285 281 280 291 293 281 273 282 282 285 289 297 303 306 305 303 302 304 309 313 313 311
284 270 250 243 226 250 248 223 213 225 243 263 284 289 292 297 296 298 297 294 296 294 289 292 292 291 283 281 279 281 289 296 302 307 310 311 316 315 311 306 307 307 309 310
316 291 239 240 254 253 216 209 213 226 248 256 266 266 267 271 275 279 283 287 290 288 288 290 289 282 279 281 287 295 299 303 307 310 315 317 316 318 317 314 313 310 312 314
280 269 238 233 230 200 199 209 226 245 252 257 260 262 269 276 280 286 289 290 290 290 291 290 286 285 289 295 302 304 304 306 304 312 312 314 319 321 321 319 319 316 316 304
226 300 221 205 183 189 206 231 246 258 267 270 274 277 279 283 286 288 289 287 287 290 285 285 284 292 300 305 305 307 309 312 314 317 320 325 329 335 335 331 327 317 324 8
108 110 109 121 136 174 258 278 282 283 283 284 287 288 288 289 289 286 282 274 284 300 291 281 290 302 311 315 317 316 317 329 341 350 358 1 11 10 12 28 35 51 65 93
77 64 44 12 333 312 304 301 299 298 301 302 302 301 298 298 293 286 275 268 270 281 292 289 285 301 311 318 322 337 348 354 25 49 76 65 55 57 63 66 75 83 92 101
11 352 338 329 324 323 320 315 315 313 312 310 307 305 301 298 295 289 283 273 270 265 270 284 307 317 323 341 14 359 353 35 91 112 86 77 69 69 66 66 66 74 76 69
345 341 334 332 331 328 327 324 319 321 326 316 310 309 305 298 301 292 277 261 234 228 268 307 316 334 66 71 38 30 45 97 117 109 93 77 61 49 46 45 48 44 32 23
343 344 343 334 325 321 323 327 329 330 318 329 325 312 311 309 297 309 303 256 202 214 325 343 88 78 77 47 56 24 87 110 122 107 81 54 40 37 40 41 44 51 58 71
333 333 331 325 330 336 339 333 337 339 342 353 356 355 354 348 341 295 82 111 124 111 110 112 97 61 63 67 85 129 85 124 121 86 63 50 55 55 56 59 57 54 56 59
330 332 334 336 339 339 337 348 353 19 25 26 40 52 67 78 89 96 102 110 112 118 114 93 66 76 93 96 102 112 120 118 94 78 75 64 54 48 45 43 46 53 51 42
324 339 335 341 345 353 3 9 48 33 23 46 61 68 74 97 93 93 107 111 118 118 101 89 88 86 101 103 99 95 93 92 84 66 46 33 27 22 19 15 13 17 31 43
309 317 334 6 6 42 66 73 55 46 70 80 88 91 89 94 100 107 115 120 120 109 103 106 103 101 98 95 95 97 88 68 51 31 20 16 12 9 6 0 350 340 328 308